STARLINK-5719, 55609

Orbit data source: Space-Track

STARLINK-5719, 55609 is a payload satellite owned by SpaceX/Seattle (US) in LEO that was launched on Sun, 12 Feb 2023 UTC via an FALCON 9 launch vehicle from the Air Force Eastern Test Range (AFETR). Payload-class satellites include a variety of spacecraft equipped with specific instruments for various scientific and technological missions. These include communications satellites like Starlink; space stations such as the ISS; scientific satellites like the Hubble; Earth observation satellites from companies like Planet Labs, Umbra, and HawkEye 360; GPS; miniature CubeSats for education and research; and military/defense satellites.

Loading next visibility...
Identifier
55609, 2023-020AS
Orbit
LEO
Country
Flag of USUS
Related business
Manufacturer
SpaceX/Seattle
Mission
Operational Commercial Communications
Bus & Motor
STARLINK, Unknown motor
Mass
305 kg wet, ~290 kg dry
Launch date (UTC)
2023-02-12 (3 years ago)
Launch vehicle
FALCON 9
Launch site
Air Force Eastern Test Range (AFETR)
Object type
Payload
Rocket body
Debris
Shape & HBR
Box + 1 Pan, 10.1 m
Radar Cross Section
13.562 m², Large (>1 m²)

Expand to show TLE details & history
Last TLE update: 18 hours ago

TLE from 18 hours ago
0 STARLINK-5719
1 55609U 23020AS  25311.68253806 -.00000783  00000-0 -42884-4 0  9992
2 55609  43.0064 294.8425 0001409 262.0482  98.0200 15.02527275150715
Epoch: 2025-11-07T16:22Z
TLE epoch observation values (Epoch: 2025-11-07T16:22:51.288Z)
Latitude
-0.00005°
Longitude
2.00575°
Altitude
559.021 km
Speed
7.584 km/s
True Right ascension
19h 39m 22s
True Declination
0° 00' 00"
Sunlit
Object was in daylight at epoch
Visualization orbit readout
Latitude
Unknown
Longitude
Unknown
Altitude
Unknown
Speed
Unknown
Apparent Right ascension
Unknown
Apparent Declination
Unknown
Sunlit
N/A
Visualization observer readout
Local Sidereal Time
06:55:03
Azimuth
Unknown
Elevation
Unknown
Doppler factor
Unknown
Orbital elements
Apogee altitude
562.007 km
Perigee altitude
560.052 km
Semi-major axis
6,939.166 km
Eccentricity
0.00014
Inclination
43.0064°
RAAN
294.8425°
Arg. of periapsis
262.0482°
True anomaly
98.03599°
Mean anomaly
98.02°
Eccentric anomaly
98.02799°
Mean motion
3.75476 °/min
Orbital period
95.88 mins
BSTAR
-0.000042884
Loading maneuver chart data...
Computing Atmospheric mass density...
Loading historical data...
Loading historical data...
Loading historical data...
Loading historical data...
Loading historical data...
Loading historical data...
Loading historical data...

Documentation

Showing up to 5 results
|